CAPE
2399 2053 2271 2295 1843 2193 2672 1901 1825 2323 2353 2405 2257 2718 2759 2895 3445 2899 2342 2344 1310 1118 1062 658 944 1118 1340 1420 1420 1912 1398 1622 1745 1577 1614 1986 2078 2316 2232 2040 1832 1713 1728 1723 1652 1719 1779 1815 1802 1835 1877 1856 1852 1824 1837 2023 2013 1957 1908 1918 1858 1663 1595 1596 1457 1345 1396 1277 1436 1412 1369 1349 1280 1252 1357 1480 1368 1366 1142 1017 1463 1354 1360 1561 1520
1719 1571 1598 1924 1332 1598 2201 2537 2425 3255 2958 2428 2256 2712 2932 2849 2707 2311 1369 1953 2189 1473 1279 462 380 568 1171 1308 1530 958 1571 1523 1577 1577 1646 1846 2031 2329 2450 2308 2199 1919 1822 1754 1703 1658 1694 1755 1794 1834 1853 1972 1964 1966 2002 2005 2054 1856 1813 1794 1763 1609 1575 1612 1500 1446 1470 1294 1339 1488 1506 1470 1389 1369 1388 1410 1450 1510 1132 1199 1608 1338 1366 1469 1424
1650 1783 1835 2134 1888 1357 1389 1603 1861 2059 2850 2914 2840 3424 2767 2394 2874 2730 3059 2814 3135 2078 1571 823 699 560 704 825 873 1327 1423 1452 1544 1578 1347 1581 1812 2143 2385 2439 2304 2214 2053 1869 1797 1746 1756 1744 1805 1792 1847 1835 1915 1804 1782 1722 1857 1777 1743 1602 1644 1584 1673 1641 1629 1670 1475 1438 1535 1576 1470 1458 1378 1396 1472 1559 1518 1480 1430 1588 1578 1425 1430 1356 1373
3504 3167 2852 3176 2724 2512 1686 2237 2298 2445 2567 2590 2987 3314 2930 2588 2958 3220 2946 3218 2289 2286 2290 1102 805 208 574 692 595 748 1368 1459 844 1211 1249 1586 1664 1862 2230 2271 2363 2332 2248 2203 1951 1858 1853 1865 1745 1826 1724 1896 1844 1827 1732 1808 1710 1768 1578 1651 1559 1548 1626 1787 1789 1746 1630 1458 1529 1519 1368 1286 1509 1575 1562 1490 1479 1496 1491 1605 1510 1377 1443 1420 1364
3964 2974 3131 2853 3068 2920 2446 2740 2744 3790 3538 3056 2822 3240 3004 2918 2690 3024 2546 3046 1776 1965 1341 721 688 444 396 391 648 753 932 1446 770 1303 1290 1572 1747 1896 1982 2147 2236 2417 2375 2268 2260 2123 2114 2073 1941 1847 1719 1691 1722 1775 1569 1632 1606 1585 1629 1489 1583 1596 1623 1702 1736 1715 1640 1608 1589 1520 1485 1508 1663 1620 1419 1487 1491 1392 1509 1432 1465 1450 1385 1361 1516
3556 3961 3258 2570 2949 3084 2642 2978 2959 3178 3156 3439 2976 2743 3138 3163 2279 2578 2295 2939 1657 2124 2294 923 438 693 455 461 580 1067 1142 680 552 622 1363 1583 1889 2035 2052 2096 2296 2298 2385 2360 2364 2285 2124 2222 2277 2038 2044 1961 1821 1762 1568 1580 1424 1659 1597 1605 1524 1526 1622 1648 1685 1743 1709 1679 1659 1671 1687 1703 1601 1538 1454 1418 1432 1460 1451 1495 1491 1389 1295 1276 1279
4018 4639 3618 3274 2266 2611 2554 2652 3032 3132 2977 3538 3706 2978 2940 2716 2369 2038 2404 2072 1991 2218 2025 900 516 276 926 975 507 968 890 782 577 527 799 1847 2127 2123 2274 2269 2290 2255 2351 2506 2361 2492 2328 2236 2214 2232 2211 2226 2190 2121 2065 2024 2028 1972 1934 1916 1856 1899 1893 1870 1864 1828 1779 1729 1717 1552 1696 1652 1528 1461 1383 1407 1279 1456 1472 1516 1353 1365 1224 1304 1199
3526 4058 3968 3437 3009 3063 2883 4161 3265 3390 4206 3519 3457 3238 3525 3184 2988 2554 2885 2036 1657 1748 1504 1025 486 352 478 505 962 1013 1279 1232 922 554 454 687 1615 2291 2548 2664 2616 2491 2511 2278 2306 2429 2529 2426 2408 2387 2300 2292 2334 2285 2236 2153 2174 2186 2196 2124 2052 2050 2043 2050 1997 1955 1860 1786 1799 1658 1521 1630 1458 1446 1625 1523 1367 1383 1403 1326 1273 1242 1143 1184 963
3792 3508 4037 3063 3006 2875 3316 3358 3001 3068 3742 3738 3142 3196 2733 2269 3844 2931 2565 3201 2159 765 1048 1194 737 562 410 514 624 1078 1432 2346 616 602 938 1114 810 571 1001 1715 2786 3039 3004 2610 2358 2417 2581 2678 2641 2600 2497 2471 2491 2414 2256 2267 2327 2356 2385 2381 2355 2261 2160 2178 2229 2084 1912 1863 1800 1809 1560 1537 1672 1514 1496 1506 1422 1432 1340 1278 1259 1202 1163 1198 710
3856 3893 4079 2965 3154 2749 3087 2890 3376 3647 3452 2619 3168 2506 2652 1880 3430 3792 2370 3290 2103 844 945 683 425 389 418 352 1094 1122 938 1594 1226 1437 1323 994 1135 1080 1196 1300 1646 2145 2744 2566 2662 2853 2300 2556 2708 2702 2651 2711 2604 2507 2465 2300 2335 2516 2522 2505 2400 2223 2196 2162 2166 2152 2039 1878 1915 1873 1676 1602 1500 1507 1537 1543 1492 1425 1341 1150 1176 1038 1076 1084 615
4035 4115 4183 3057 2635 2934 3038 2852 3030 3209 3225 2948 2911 2938 2399 2689 2538 2930 2996 2667 1360 1195 1270 456 512 229 404 452 486 1149 1562 1136 1705 2128 1155 608 676 978 742 1534 1188 1613 1804 2518 2708 3042 2430 2200 2583 2614 2664 2785 2701 2682 2598 2456 2418 2476 2594 2474 2455 2293 2102 2071 2107 2031 2070 2086 2013 1976 1860 1804 1712 1548 1518 1528 1476 1404 1199 1186 1102 944 968 800 236
3818 4137 4257 3029 2694 2720 3472 2647 2596 2802 2816 2582 2618 3151 3118 3038 2858 2412 2600 2761 1623 1139 721 989 807 748 815 844 1166 1163 1022 1577 1006 1209 1085 926 534 959 565 720 1382 1097 1458 1218 2114 2686 2788 2609 2603 2332 2408 2684 2789 2788 2792 2672 2587 2502 2535 2518 2469 2039 1879 1977 1938 1874 1864 1918 1949 1852 1770 1682 1659 1543 1485 1417 1444 1283 997 1149 1030 814 1012 569 0
3968 3905 4129 3313 2776 3009 2453 3480 2502 2301 2995 3205 2185 2139 3115 3554 4059 3585 2623 2844 1512 1303 726 1108 1614 1174 1428 998 707 946 641 320 990 679 722 849 832 477 1442 510 1075 818 1061 1387 1376 1465 2380 2873 2793 2584 2643 2926 2817 2805 2776 2831 2746 2634 2599 2561 2526 2350 2115 2014 1874 1845 1701 1810 1832 1870 1887 1752 1684 1679 1543 1483 1340 1268 1204 1043 963 841 687 626 136
4021 3916 4232 3703 3763 3098 3880 4161 2912 2864 2638 3090 2577 2847 3476 2877 2940 3542 2390 2005 2281 756 689 832 1009 1495 1182 1164 1839 1519 899 768 575 519 529 436 526 810 238 447 370 485 575 574 875 645 1465 2085 2280 2038 2889 2956 2500 2297 2766 2837 2763 2775 2647 2557 2548 2417 2311 2056 1814 1774 1624 1654 1750 1645 1686 1695 1656 1664 1493 1356 1276 1284 1228 992 949 744 682 638 159
3398 3591 3661 3305 3684 3901 3808 4026 3410 3422 3294 2784 2934 3468 3735 3177 3057 2975 3497 2248 1819 1180 934 1095 986 978 969 1744 1162 1180 1692 1759 701 520 423 452 490 454 388 483 476 866 1129 1044 1250 636 1010 1483 1863 2106 2471 3029 2706 2735 2903 2640 2556 2762 2720 2591 2444 2220 2178 2204 2094 1881 1743 1680 1711 1726 1699 1656 1643 1498 1442 1368 1153 1047 943 814 804 679 620 610 156
2680 2640 2886 3124 3554 3669 3792 2343 4180 4095 4287 3834 3890 3412 3373 3404 2993 2620 2688 3116 1608 1234 950 888 1444 1825 1066 2083 996 865 1366 1520 1162 1085 373 432 466 556 460 506 570 1268 734 1032 850 1440 1233 1297 1573 1721 1869 1466 2305 3078 2884 2823 2865 3068 3028 2819 2480 2311 2279 2369 2185 1880 1729 1615 1621 1640 1596 1665 1605 1573 1384 1271 1049 970 746 684 718 729 714 553 235
2696 2771 2627 3303 3472 3865 4002 4174 4479 4181 3848 3408 4479 3480 3103 2452 3331 3401 2637 2303 2064 1875 1089 468 636 1724 2196 1050 982 720 744 867 300 872 570 370 415 374 911 390 517 1102 1409 1303 1209 1134 985 1282 1935 2122 2324 2304 1666 2070 2208 3084 3170 3509 3302 2704 2613 2342 2316 1985 1831 1879 1739 1648 1656 1498 1478 1756 1731 1484 1300 1110 883 827 749 710 747 772 833 838 198
2840 2815 2487 3001 3675 3590 4021 3721 3797 4080 3540 4178 4043 3280 3594 2898 2697 3007 2341 3110 2779 2682 926 1494 641 1166 896 1416 531 1410 668 891 823 1550 1536 800 586 586 886 509 381 1003 1460 1539 710 788 1371 1622 1546 1916 2032 2010 2115 1896 1803 3002 3212 3048 3098 2815 2630 2630 2347 1966 1928 1972 1734 1679 1656 1554 1414 1529 1560 1304 1212 1058 956 882 929 868 865 901 917 686 119
2231 2702 2581 3173 3530 3786 3552 3580 3161 3635 3684 3797 3972 3275 2459 2216 2542 2614 2888 4102 3086 3265 2585 1077 2061 1822 504 483 652 467 759 1635 1067 1483 1644 2357 1094 541 363 444 366 1013 1128 939 901 739 983 948 1385 1388 1736 2120 1992 1993 2314 2112 2019 3113 3224 3421 2929 2966 2462 2205 2356 2198 1758 1647 1707 1727 1546 1440 1438 1396 1369 1131 1009 1016 988 1066 1071 1052 1008 815 252
2391 3117 2973 3040 3508 3756 3992 3617 3561 2817 3416 3415 3042 2369 3250 3202 3016 4103 4473 3572 3813 3454 2625 2640 2041 1559 1095 726 881 614 68 10 371 648 2164 1506 1740 838 502 486 426 512 821 986 575 753 1197 750 867 944 1663 1626 2273 2010 2035 1973 2248 2478 2875 2800 3280 3044 2743 2492 2466 2070 1672 1475 1531 1836 1804 1554 1424 1424 1444 1253 1124 1162 1115 1120 1176 1139 1085 843 378
2913 2688 3082 3083 3400 3789 3852 3757 3482 3388 3428 2942 2437 2156 2907 3139 3887 3921 3737 3958 3724 3273 3338 3314 2841 1367 1914 1558 1629 1412 690 281 967 411 1946 1028 1165 903 972 637 611 774 800 230 149 876 914 853 1331 857 1564 2062 1913 2072 1980 2346 2772 2269 2493 2296 3104 3218 2783 2404 2196 2073 1831 1596 1477 1680 1943 1821 1600 1506 1523 1496 1410 1349 1289 1213 1259 1213 1115 818 490
2520 2806 3369 3110 3200 3448 3576 3422 3383 2385 2904 2578 2457 2348 2455 3234 3417 3121 3325 3544 4636 3395 3194 3458 2533 2735 2291 2646 2496 2478 1826 1057 697 909 906 976 982 978 587 658 595 887 444 561 272 414 406 1164 1158 913 678 1683 1846 2106 1936 2047 2916 2857 2441 2053 2706 2790 2730 2338 2023 1986 1793 1669 1516 1560 1852 2079 1965 1761 1639 1609 1640 1584 1504 1407 1349 1294 1124 957 698
2066 2442 3038 2584 2996 3176 2637 3137 3030 3209 3406 3242 2977 2213 2021 2388 2480 3144 3252 3542 4096 3516 3085 2971 3016 3306 2729 2953 2932 1964 1110 2199 2375 472 624 1240 1322 1005 466 255 376 633 1662 938 569 473 570 604 626 572 1887 690 1426 2174 2179 2104 1939 1690 2581 1900 1958 2277 2267 2167 1832 1983 1866 1773 1761 1654 1595 1883 2049 2052 1898 1850 1814 1920 1897 1638 1418 1394 1395 1220 862
2894 2383 1905 1750 2854 3259 3153 2993 3411 3320 3427 3413 3105 2599 2058 2179 2669 3316 3509 3558 3810 3586 3464 3171 2189 3398 1944 1815 1858 1638 1739 1074 1170 660 776 777 1646 1239 1338 736 623 826 1744 1118 995 877 818 669 540 570 702 1068 1591 2455 2863 3075 2355 2046 2692 1916 1639 1918 1864 1788 1848 1986 1611 1685 1634 1689 1727 1768 1793 1966 2051 2004 1990 2078 2105 2036 1772 1424 1216 1082 1210
2785 2336 1923 1969 2854 3502 3273 3467 3923 3401 3614 3653 3409 3623 2954 3148 3421 2663 3142 3473 3966 3932 3645 3502 2659 2838 2478 2130 1168 1115 1159 1152 578 452 1172 2338 1427 1007 658 1090 1148 1154 1344 1337 1178 762 647 1104 1261 700 1277 1766 2214 2972 2351 1987 2151 2581 2477 2477 1624 1752 1722 1541 1552 1504 1435 1395 1472 1503 1499 1649 1789 1808 1745 1860 2015 2092 2082 2004 1906 1696 1270 843 674
1952 2213 2035 1767 2105 3102 3421 3464 3925 3989 3895 3904 3706 3274 2969 3322 3020 3098 2456 3478 3367 3491 3615 3086 3446 2935 2633 2697 1807 1198 1026 931 842 478 462 1150 1088 1191 3017 2059 1199 1270 1949 1696 1850 1327 1636 1063 696 2057 1927 1933 2043 2951 1832 1354 1324 2880 2480 2394 1860 1562 1466 1350 1372 1241 1243 1262 1214 1246 1324 1387 1658 1690 1659 1661 1806 2003 1980 1864 1748 1800 1691 1161 785
1684 2237 2302 2489 2313 2727 3279 3208 3461 4120 3967 3928 3632 3879 3490 3434 3501 3336 3503 3617 3631 3334 3421 2816 2681 2408 2753 2837 2453 2203 2057 1515 790 766 1109 990 1549 2039 2257 1939 1418 1332 1563 3412 2984 1450 1146 1353 912 1364 805 1503 1529 2620 2852 2108 1546 3085 2364 2414 2748 1356 1209 1119 1100 1022 930 942 1040 1080 1088 1160 1184 1166 1204 1504 1578 1840 1850 1753 1764 1674 1517 1446 1262
1829 2187 2089 2520 2564 2772 3188 3021 3411 3530 4010 4029 3980 3601 3897 3722 4050 3729 3434 2523 3075 3304 3443 3060 2564 2852 2614 3143 3728 2336 2550 1878 1892 1652 1781 2042 2884 2332 2411 2827 2307 2601 2422 2071 2000 2146 1637 1895 1400 1283 1809 2458 1800 2124 2346 1713 1385 2970 2820 2211 2746 2722 1829 1419 1142 914 773 639 676 814 848 911 966 973 1035 1131 1449 1429 1370 1350 1367 1420 1461 1391 1196
1974 1768 2034 2182 2793 2621 2634 2462 3345 3489 3691 4110 4071 4029 4018 3769 3700 4075 3734 2918 3436 3389 3348 3140 3267 2314 2582 2463 3267 3118 3161 3241 3106 2565 3634 2722 2869 3739 3683 2506 3425 2563 2545 2537 2642 2397 2307 1345 1214 2632 1988 2235 3500 2178 2810 2161 1757 2630 3067 2885 2412 2531 2505 1750 1356 1132 953 819 706 625 603 682 704 726 806 796 896 907 879 923 903 914 1012 1123 1116
1372 1031 1509 2194 2586 3069 2875 3078 3169 3099 3118 3387 3912 3932 3865 3548 3550 4112 3666 3797 3626 3731 3687 3203 3021 3100 2710 2676 2570 2958 3112 2785 2824 2055 2944 4131 3554 3044 3236 3163 3021 2431 2603 2244 2666 2732 2473 2130 1307 3215 2134 3592 3433 3448 2394 2859 2222 2038 2719 2634 2420 2219 2145 2147 1894 1577 1352 1137 977 848 743 661 579 517 556 658 692 652 577 580 612 473 475 497 544
1130 1971 2004 2071 2233 2845 3120 3242 3485 3393 3406 3319 3830 3850 3881 3598 3295 3623 3446 3983 3951 3883 3882 3590 3033 3049 3274 2966 3416 3474 3614 3025 3428 2478 3309 3459 3224 3303 3502 3782 4007 3475 3340 3360 3077 3293 2701 2611 2392 1989 2424 3263 2509 2131 2042 1920 1819 1776 2020 2128 2203 1930 1606 1563 1497 1514 1445 1390 1313 1251 1151 1045 952 838 710 403 355 374 422 398 418 459 505 540 586
1325 1668 2535 1875 2194 2391 2701 2635 2646 2800 3052 2778 3156 3731 3748 3540 3158 2899 2863 3650 3748 3663 3415 3285 2892 3242 3222 2970 3239 3506 3560 3514 3427 3115 3126 3330 3563 4042 3808 3785 3855 3545 3393 3603 3241 3258 3518 3017 2686 2642 2322 2072 3803 3426 2960 2580 2374 1511 1520 1792 2021 1900 1973 1786 1840 1786 1708 1614 1644 1690 1524 1458 1491 1454 1430 1400 1276 1016 737 595 620 660 712 746 843
1607 1406 2145 2093 2456 2487 2230 2354 2274 2369 2756 2708 2779 3269 3549 3739 3715 3630 3389 4089 3564 3724 3878 3814 3166 3031 3446 3171 3258 3482 3469 3579 3613 3124 2849 3167 3390 3448 3810 4106 3952 4040 4094 3834 3464 3328 3570 3578 3462 3125 2950 3119 2725 2768 2720 2514 2449 2926 2492 2497 2905 2827 2746 2710 2651 2408 2374 2454 2562 2611 2572 2462 2367 2276 2268 2497 2438 2338 2176 1923 1628 1212 1057 1035 1099
2006 1592 1732 2086 2658 2737 2611 2647 2447 2555 2897 3223 2919 3008 3456 3565 3540 3019 3113 3429 3991 3465 3674 3906 3876 3574 3380 3723 3478 3485 3978 3664 3264 2928 2843 2401 2333 2629 3417 3212 3617 3932 3945 3576 3645 3488 3295 3596 3766 3810 3430 3199 2898 3344 3366 3473 3214 2934 3113 3328 3479 3475 3500 3195 2739 2728 2872 2872 2840 2795 2498 2536 2494 2581 2647 2636 2604 2557 2517 2476 2476 2398 2326 2198 2003
2226 2025 1920 1879 2374 2992 2785 2847 2755 2517 2918 3133 2919 2894 3074 3382 3428 3108 2786 2997 3248 3384 3619 3826 3636 3592 3588 3588 3423 3370 3232 3216 3476 3190 2713 2889 2781 3147 3094 3724 3686 3277 3782 4078 3830 3651 3513 3563 3856 3389 3098 3530 3659 3728 3969 3933 3731 3804 3891 4006 3613 3297 3454 3554 3404 3121 3095 3067 3031 3010 2944 2860 2630 2677 2705 2706 2700 2672 2617 2554 2496 2450 2493 2545 2561
1949 2324 2303 2101 2698 3053 3008 3108 2994 2490 2924 2737 2686 2769 3015 3177 3253 3362 3301 3218 3062 3056 3302 3552 3554 3579 3622 3719 3272 2940 3113 3332 3531 3374 3492 3469 3542 3743 3219 2852 3142 3469 3913 4630 4957 4271 4127 3863 4038 4026 3993 3871 3903 4036 4093 3976 3887 3854 3896 3838 3839 3744 3716 3715 3540 3159 3034 2988 2999 3090 3029 2831 2736 2808 2848 2866 2868 2815 2632 2630 2653 2701 2750 2716 2707
1863 2165 2410 2517 2788 3142 3046 3131 3246 2614 2801 2754 2662 2434 2621 2829 3089 3101 3210 3321 3249 3130 3057 3434 3595 3688 3662 3454 3417 3253 3328 3401 3470 3318 3127 3423 3722 3391 3272 3443 3706 3765 3530 3462 3595 3912 3876 3825 3935 4135 4465 4479 4232 4067 3972 3778 3891 4135 4298 4488 4573 4392 4336 3912 3400 2897 2892 2833 2863 2935 3115 3218 3206 3158 2988 3027 3051 3064 3072 3126 3215 3189 3086 2994 2898
1949 2110 2424 2624 2785 3049 3115 3100 3368 2951 2691 2855 2857 2623 2347 2418 2844 2926 3180 3316 3082 3087 3147 3349 3556 3592 3485 3530 3346 3483 3393 3219 3136 3112 3401 3518 3671 3633 3592 3796 4125 4330 4742 4754 4871 4768 4568 4326 4093 3934 4017 3888 3871 4043 4316 4473 4054 3841 4057 4264 4059 3816 3740 3732 3442 3021 3022 3102 3254 3406 3447 3458 3452 3477 3426 3415 3396 3460 3499 3548 3548 3456 3332 3235 3172
1970 1877 2238 2626 2834 3146 3323 3296 3235 3208 2850 2756 2982 3058 2787 2581 2640 2788 2732 3134 3130 3039 2996 2993 2998 3204 3286 3272 3470 3548 3440 3472 3320 3239 3527 3655 3478 3459 4073 4575 4351 4355 4267 4373 4732 4918 4678 4271 4034 3958 3874 4022 3939 3917 4640 4999 4713 4017 3475 3391 3567 3745 3877 4083 4452 4469 3980 3612 3601 3741 3799 3722 3636 3608 3596 3634 3664 3625 3651 3650 3672 3608 3462 3391 3310
1877 1758 1973 2433 2988 2967 3345 3344 3366 3388 3275 2991 3109 3355 3313 3022 2830 2848 2818 2920 3004 2987 2755 3023 2968 2712 2940 3036 2784 3035 3354 3560 3530 3451 3433 3483 3923 3905 4085 4125 4296 4528 4460 4486 4705 4706 4509 4164 4172 4098 4164 4208 4266 4128 3858 3684 3700 3891 3949 3919 4058 3733 3781 4670 4467 4424 4680 4773 4665 4266 3960 3909 3876 4005 3939 3886 3931 3934 3880 3808 3721 3606 3407 3304 3266
2278 2060 1767 2150 2509 2644 2950 3250 3346 3294 3292 3203 3039 3472 3456 3273 2871 2549 2872 2930 3003 2891 2887 2794 3095 3075 2814 2608 2638 2616 2986 3645 3259 3192 2959 3169 3507 3898 4068 4252 4723 4894 5033 4855 4881 4917 4708 4536 4360 4330 4196 4060 4074 4168 4151 4136 4144 4485 4236 3667 3593 4271 4754 4542 4807 4908 4671 4567 4559 4419 4434 4506 4253 4140 4092 4035 4050 3948 3915 3797 3726 3579 3412 3279 3151
2565 2562 2014 2168 2536 2654 2818 3424 3663 3411 3189 3088 3051 2976 3126 3308 3069 2256 2461 2880 2842 2771 3054 2980 2802 2899 2618 2302 2020 2631 2906 3736 3132 2569 2556 2598 3061 3421 4191 4914 4993 5008 4987 4898 4841 4605 4494 4327 4118 3986 3876 3706 3674 3838 4113 3921 3755 3758 3803 4475 4343 4385 4291 4309 4472 4832 5093 4866 4888 4790 4688 4482 4222 4191 4172 4138 4008 3857 3833 3881 3816 3590 3362 3111 2753
2642 2949 2642 2236 2290 2614 2631 2861 3382 3229 2950 2902 2973 2977 3012 3177 3158 2876 2536 2859 3166 3339 3174 3246 3004 2644 2512 2568 2444 2524 3039 3529 4534 3055 2455 2584 2706 2887 3231 3563 4483 4788 3983 3987 3605 3635 3934 4137 4107 4124 3856 3864 4134 4008 3844 3533 3540 3821 4326 4511 4444 4290 4251 4314 4380 4327 5918 5376 4638 4447 4282 4332 4336 4260 4168 4027 3932 3874 3831 3677 3481 3323 3011 2416 2006
2786 2852 2806 2533 2296 2651 2867 2994 3126 3202 3243 2768 2817 3124 3234 3303 3222 3330 3008 2814 3025 3402 3490 3095 3094 2832 2535 2281 2313 2056 2253 2696 2700 4170 2952 2664 2720 2834 2935 2987 2978 2856 2639 2646 2428 2457 2736 3000 3221 3226 3080 2987 3541 3884 3871 3514 3650 4114 4488 4414 4274 4310 4500 4540 4393 4225 4336 4449 4339 4022 3877 3954 4326 4270 4002 3859 3776 3748 3521 3169 2742 1859 1410 1322 1375
2954 2827 2744 2670 2513 2358 2787 3005 2690 2883 3197 2715 2437 2941 3167 3227 3286 3293 3354 2960 2604 2918 3225 3443 3265 3012 2755 2535 2255 1783 1360 2680 3261 3178 4108 3131 2657 2850 2998 3062 2977 2903 2796 2632 2450 2282 2492 2711 2685 2740 2922 3220 3131 3046 3215 3432 4313 4165 3981 4012 4347 4668 4492 4312 4282 4149 3994 4021 3995 3920 3832 3929 4065 4042 3955 3600 3218 3003 2749 2148 1481 1439 1338 1236 1233
3014 3015 2898 2772 2666 2585 2467 2986 3003 2945 3104 2793 2462 2660 3035 3132 3214 3176 3564 3682 3306 2827 2972 3452 3433 3393 3407 3255 3016 2740 2375 2283 3260 3631 3825 4757 3843 2913 3061 3192 3142 2980 2748 2593 2486 2392 2239 2220 2394 2530 2741 3031 3090 3317 3860 4091 4155 4228 4387 4334 4473 4512 4355 4222 4127 3962 3920 3958 3995 3819 3744 4066 4150 3077 2606 2660 2712 2294 1874 1589 1488 1273 1196 1173 1200
2915 3259 2996 2738 2804 2774 2544 2677 3275 2834 2723 2531 2382 2441 2829 3005 3077 3089 3277 3636 3718 3346 3234 3322 3569 3522 3569 3561 3463 3332 3277 3047 2970 3582 3959 4194 4760 5059 4166 3984 3827 3611 3432 3358 3341 3205 3006 2785 2582 2388 2640 2875 3231 3689 4029 4394 4286 4078 3956 4716 4777 4104 4009 4007 3942 3981 4019 3946 4087 4382 3408 2488 2585 2424 2345 2112 1762 1712 1665 1356 1000 986 1137 1124 1058
2307 3409 3420 2913 3005 3007 2748 2486 2362 2670 2218 2457 2418 2342 2475 2789 2882 2887 3000 3458 3434 3555 3821 4018 3790 3850 3834 3788 3666 3569 3499 3833 3789 2897 3107 3880 4240 4543 4749 5020 4838 4666 4498 4392 4260 4182 3971 3750 3514 3304 3121 2950 3120 3672 4050 4570 4171 3969 3405 3234 3259 3548 3773 3855 3959 3845 3104 2582 2396 1993 1958 2102 2385 2002 1874 1702 1451 1077 758 809 1170 931 726 393 768
2438 2593 3234 2756 3145 2972 2975 2983 2766 2786 2786 2434 2168 2246 2301 2528 2680 2741 2930 3298 3414 3369 3345 3778 4198 4426 4442 4182 4327 4188 4174 4340 4149 3722 3150 3294 4082 4362 4444 4699 4943 4627 4390 4373 4206 4168 4077 3883 3734 3514 3275 2991 2908 2984 3125 3407 3444 3387 3392 3291 3345 3455 3735 3777 3690 3164 2738 2135 1992 1683 1828 1958 1967 1510 1306 1047 725 420 663 890 1064 669 240 786 123
2351 2506 2940 3398 3388 3218 2879 3052 3035 3202 3085 3061 2359 2274 2093 2313 2454 2653 2982 3280 3366 3274 3316 3413 3607 3902 3969 4189 4719 4483 4366 4462 4412 4104 3754 3509 4120 4294 4162 3942 3881 3888 3874 3576 3051 2825 2885 3501 3562 3407 3257 3177 3309 3428 3488 3495 3502 3498 3487 3539 3635 3556 3698 3675 3429 2801 2586 2550 1928 1608 1560 1529 1250 1130 702 597 515 731 665 868 638 633 776 505 232
2675 3048 3328 3440 3288 3365 2854 2872 2952 3081 2900 4234 2562 2476 2254 2202 2370 2636 3063 3284 3341 3202 3242 3345 3378 3469 3639 3721 3964 4080 4189 4122 3946 3985 4025 3886 4035 4342 4410 4071 3922 4008 3997 3860 3627 3352 3473 3448 3297 3249 3407 3767 3884 3912 3913 3826 3822 3846 3826 3782 3693 3649 3822 3892 3388 3057 2516 2109 1368 1240 899 1159 725 653 483 495 642 662 770 613 532 561 256 283 535
Wind_Speed
6 6 5 6 7 7 8 7 9 14 13 13 14 14 16 15 18 17 17 18 18 16 15 16 16 13 14 16 15 16 12 12 13 12 12 13 14 14 13 13 13 13 13 13 13 13 14 15 16 17 18 18 19 19 19 20 20 19 19 19 18 18 17 17 17 16 16 14 13 12 11 10 10 10 9 9 9 9 9 9 9 9 10 10 11
4 5 5 7 7 5 6 7 9 12 14 10 14 15 16 14 15 17 16 16 18 17 16 14 14 13 12 18 17 13 13 12 14 13 12 13 13 13 15 15 14 15 15 15 15 15 16 16 17 18 18 18 18 19 19 19 19 19 18 19 20 20 20 20 20 20 19 19 17 17 15 13 12 12 10 10 9 9 9 9 9 10 11 12 12
3 6 6 4 2 3 7 7 8 11 14 11 13 15 14 14 16 16 13 16 17 18 16 15 14 15 14 13 13 13 13 12 13 12 12 11 11 13 15 17 16 16 16 17 17 17 18 18 18 18 18 18 18 18 18 18 19 18 19 20 21 22 22 23 23 24 23 22 21 20 19 17 15 13 12 12 11 11 11 11 12 11 12 13 13
7 7 6 5 4 3 6 8 9 9 14 11 11 11 11 15 14 15 14 15 18 18 16 13 15 12 13 11 13 11 12 15 12 12 11 10 11 13 13 15 17 17 17 17 18 18 18 19 19 19 19 18 18 18 17 17 18 19 20 22 23 24 24 25 25 25 25 23 22 21 20 18 16 15 15 14 13 12 12 13 13 12 13 13 14
3 4 5 5 5 4 5 6 7 9 10 8 7 10 11 12 13 14 13 15 13 16 14 13 11 12 13 11 11 11 12 14 9 11 10 10 11 11 13 13 15 17 19 18 19 19 19 18 18 18 19 18 18 17 18 19 20 21 23 24 24 24 24 25 26 26 26 25 23 22 20 19 18 17 16 15 14 13 13 13 12 12 12 13 14
3 4 7 5 5 5 5 5 7 8 7 8 7 8 10 11 11 14 12 12 13 16 15 11 10 12 11 8 10 10 10 11 11 9 10 10 10 11 12 12 13 14 15 19 19 20 19 19 18 18 18 17 18 18 20 21 22 23 23 24 24 24 24 24 24 24 24 24 23 22 21 20 19 17 16 14 14 14 13 13 12 12 12 13 15
3 5 4 6 4 5 5 5 7 6 5 6 7 7 7 9 9 9 11 11 12 14 15 10 8 10 10 9 9 10 9 9 9 9 9 8 10 11 12 12 12 13 13 13 18 19 19 19 19 18 18 18 19 20 21 22 22 23 24 25 25 25 26 26 26 25 25 24 23 21 20 20 19 17 16 16 15 15 14 14 14 14 14 15 16
3 4 6 6 5 6 7 6 5 4 5 5 7 7 4 6 6 9 7 10 12 13 12 8 8 8 6 7 9 8 6 6 9 9 8 9 10 11 10 11 11 11 13 13 13 16 20 19 18 18 18 19 20 22 22 23 24 25 25 25 25 26 26 26 26 25 24 23 22 21 21 20 20 19 18 18 17 17 16 16 15 16 16 17 18
3 4 6 6 6 5 6 6 4 4 6 5 6 6 6 2 6 6 7 9 12 6 6 8 7 6 7 5 5 7 3 9 8 7 4 7 7 9 9 10 11 14 13 13 13 13 17 19 19 19 19 20 21 22 22 23 24 24 24 25 26 26 26 26 26 25 24 24 23 23 23 22 21 21 21 19 19 19 18 18 18 18 18 21 19
5 4 5 5 7 7 6 6 7 6 6 5 6 6 6 5 5 5 6 8 10 5 6 6 5 4 3 1 4 5 5 4 6 4 6 6 8 6 8 7 10 13 13 13 14 13 14 18 19 20 20 20 21 21 22 23 23 24 24 25 26 26 26 25 25 25 25 25 25 25 24 24 23 22 22 22 20 20 20 21 21 21 21 20 20
5 5 5 6 7 8 7 6 5 7 6 6 7 7 7 8 7 5 8 8 7 7 4 3 4 4 2 0 2 7 5 4 7 6 7 7 6 7 7 8 8 7 9 14 13 13 14 14 14 14 16 22 22 23 23 24 23 24 24 25 26 27 26 25 24 24 25 26 25 25 24 24 24 23 22 22 22 22 23 23 23 23 23 23 22
7 5 5 6 6 9 9 5 5 7 7 7 6 7 8 8 9 9 10 11 7 7 4 5 4 5 5 3 4 4 7 5 6 6 7 7 8 8 7 6 7 9 9 10 13 15 15 14 14 15 15 19 24 23 25 25 24 25 26 27 28 28 27 25 25 26 26 25 25 25 24 24 24 24 24 23 22 23 25 26 25 24 26 26 nan
7 6 4 5 7 7 5 9 5 8 8 10 8 8 10 8 7 10 11 10 9 8 6 7 4 5 8 6 4 9 6 8 7 7 7 6 4 8 6 5 5 7 8 8 10 12 14 15 15 16 16 13 19 24 25 25 26 27 28 29 29 28 27 26 26 26 26 26 26 26 27 27 27 26 27 26 25 25 26 27 27 27 28 28 28
6 8 7 7 7 7 6 4 6 7 9 9 9 9 9 8 7 10 9 9 11 10 5 6 9 8 8 7 9 5 8 9 8 7 6 8 5 4 3 7 7 9 7 6 7 8 12 14 13 13 11 14 17 17 19 22 24 29 30 30 29 28 28 28 27 26 26 26 27 28 28 29 29 29 29 29 28 27 27 27 26 27 29 29 29
7 8 8 9 7 9 7 7 7 7 8 8 9 10 9 9 10 8 10 10 12 9 9 12 9 6 7 9 8 8 7 8 9 8 7 6 5 5 6 7 4 3 5 8 10 12 12 10 9 10 13 16 17 17 19 22 24 30 30 30 29 30 29 29 28 28 28 28 30 31 30 30 31 31 31 31 31 30 29 29 29 30 30 30 31
9 9 10 10 8 7 8 9 7 9 6 6 8 7 9 11 9 9 8 11 10 11 9 11 12 6 9 10 8 8 7 8 8 8 8 7 7 7 6 8 6 4 7 9 11 8 7 9 10 12 12 13 14 16 20 20 27 30 31 30 30 28 30 29 29 29 29 30 31 32 31 33 33 33 33 33 32 32 32 31 31 32 33 33 33
10 10 10 9 9 8 7 8 6 8 5 7 8 9 10 10 7 8 10 8 10 12 11 8 8 8 8 8 8 6 7 4 5 7 8 7 8 9 5 9 8 7 8 11 7 10 14 13 14 14 15 14 14 14 16 16 20 21 25 29 30 29 30 31 31 30 30 31 32 33 34 34 34 34 34 33 33 32 32 32 33 33 34 34 34
11 11 9 7 8 8 7 6 7 8 6 7 7 8 12 8 9 9 8 8 8 10 9 9 3 5 7 6 7 5 7 7 7 7 9 10 9 9 8 13 11 10 13 12 14 14 16 14 16 17 16 15 16 17 18 17 19 20 21 24 32 31 31 33 33 32 32 33 33 34 34 34 33 33 33 32 32 31 32 33 34 35 36 36 36
10 11 9 8 7 7 8 7 7 5 5 5 6 9 10 6 8 8 4 6 7 5 9 6 2 6 7 9 6 9 4 6 6 7 8 9 9 12 11 15 14 15 16 17 18 18 16 17 18 19 16 17 18 17 18 19 21 21 24 29 32 32 33 34 35 34 34 34 34 33 33 33 33 33 32 32 32 32 33 34 35 36 37 38 37
12 9 10 9 7 8 7 8 8 6 4 5 6 6 6 9 4 6 3 2 6 4 6 8 6 7 8 8 7 3 nan nan 6 5 7 8 9 13 17 12 15 15 18 20 19 20 15 16 15 14 17 20 18 19 20 22 20 21 21 26 30 33 33 34 34 35 34 34 34 34 34 33 33 33 34 33 33 33 34 34 36 37 38 38 39
12 9 9 10 8 9 9 8 9 9 5 6 6 5 2 7 3 3 3 5 6 6 6 9 11 6 4 5 6 6 7 10 5 8 7 7 11 12 14 10 13 10 10 13 13 11 19 19 18 18 19 20 20 20 20 21 21 22 24 29 32 33 33 34 34 35 35 35 34 34 34 33 33 33 34 35 35 35 35 35 36 38 39 39 40
10 12 9 11 10 10 10 10 9 10 7 8 6 6 4 4 4 4 6 5 5 8 8 9 9 6 5 4 3 5 5 5 7 8 5 8 12 13 12 12 13 12 14 16 17 13 15 16 20 19 19 18 21 21 20 20 21 22 26 32 33 33 34 34 35 36 36 35 35 34 34 34 34 34 34 35 36 36 36 37 38 39 40 40 40
9 10 10 10 10 10 10 9 9 8 7 8 7 6 4 5 5 5 5 6 6 8 9 7 6 6 5 5 6 7 7 6 6 6 8 10 12 12 12 10 10 13 15 11 13 16 16 16 20 21 17 20 19 20 20 21 23 25 27 33 33 33 34 34 34 35 35 34 34 34 35 35 36 36 36 35 36 37 37 37 39 39 40 40 40
10 9 10 9 9 8 9 8 6 7 4 5 6 6 6 3 4 3 4 5 6 6 7 7 6 7 8 6 8 9 8 8 8 9 8 9 8 11 14 13 14 14 12 16 16 18 18 18 19 19 18 18 18 18 19 21 23 27 25 32 33 34 34 33 33 33 34 33 34 34 36 37 37 36 36 35 36 38 39 39 39 40 40 39 39
9 9 7 8 6 6 6 8 5 5 5 3 4 6 6 6 1 4 4 4 5 6 7 8 8 6 7 7 8 8 6 7 8 7 8 9 9 10 14 12 11 14 14 10 13 14 15 16 16 18 17 16 16 16 17 19 20 24 27 28 34 33 33 33 32 33 33 34 34 36 37 37 37 36 35 35 37 39 40 40 39 39 40 39 40
9 7 7 5 5 2 3 5 6 4 4 4 3 3 3 5 5 3 4 3 4 5 6 8 7 8 8 8 9 8 7 7 7 7 8 9 9 12 10 8 11 12 12 12 12 14 15 17 17 13 11 13 14 15 18 19 20 26 29 25 30 32 33 32 33 33 34 35 36 38 39 40 39 39 39 40 41 42 42 41 40 41 41 41 42
9 7 6 3 2 3 1 2 4 3 3 3 3 3 3 2 5 4 3 2 5 6 7 8 9 9 7 7 6 8 7 5 6 6 5 6 5 4 3 6 9 11 12 11 11 14 14 13 13 13 15 14 15 15 17 19 20 24 29 24 21 30 31 33 33 35 36 37 39 40 41 42 43 42 42 42 43 43 44 43 43 43 42 42 42
7 7 4 4 3 3 4 1 2 2 2 2 2 2 2 2 2 4 4 6 6 7 8 9 10 9 8 6 4 7 6 5 4 3 2 2 2 3 4 5 7 10 9 11 11 12 13 12 13 12 11 13 15 15 18 18 19 20 25 21 21 24 33 34 35 36 38 38 40 41 42 44 44 44 44 44 44 45 45 45 45 44 44 44 44
7 6 5 4 4 3 3 3 1 2 2 2 2 3 3 3 5 6 7 9 8 9 9 10 11 12 10 9 7 7 6 4 2 3 1 2 1 4 4 5 6 7 9 9 10 11 11 13 10 10 10 13 12 16 15 17 18 17 19 21 23 22 29 36 37 38 39 40 41 42 43 43 44 44 44 44 45 46 46 46 46 46 46 46 46
9 6 6 4 4 4 3 2 2 1 2 3 4 5 6 7 8 8 9 9 10 9 8 10 10 10 10 8 8 8 7 6 5 4 2 3 3 3 6 5 5 7 7 8 10 9 11 11 12 9 11 11 12 14 15 16 20 21 19 21 22 23 29 33 35 36 37 38 40 40 40 41 41 42 42 43 44 45 46 46 47 47 47 47 47
10 10 8 6 4 4 2 2 1 2 4 6 6 7 7 8 9 7 7 7 7 7 6 7 8 9 8 8 6 6 5 4 2 1 1 5 4 2 4 5 5 5 6 6 7 7 7 10 11 13 12 13 16 15 16 18 19 22 19 19 21 24 26 24 29 32 33 34 35 36 37 38 39 40 40 41 42 43 44 45 46 46 46 46 46
9 8 9 7 6 3 1 1 3 4 6 7 6 5 5 6 6 6 5 5 5 6 6 6 7 6 7 7 6 6 5 4 2 1 2 3 3 3 1 3 4 5 4 5 6 10 7 10 13 15 16 13 14 14 13 12 15 21 17 18 19 21 20 19 24 30 33 35 36 38 40 41 42 43 44 45 46 47 47 48 48 48 47 47 46
11 8 9 8 7 4 1 3 4 5 5 5 4 3 2 2 3 4 4 2 4 4 5 5 6 5 6 6 6 6 5 5 3 1 1 2 2 2 1 1 2 3 3 3 5 8 7 8 11 12 14 13 14 11 12 12 11 11 14 15 16 17 18 20 22 29 35 38 41 43 44 46 47 48 48 49 49 50 50 50 50 50 49 48 47
11 9 9 9 8 5 3 3 5 5 4 3 1 1 1 2 2 2 4 3 3 5 4 5 6 5 3 4 5 5 4 5 4 2 0 3 4 3 2 0 1 2 1 2 3 4 8 7 9 10 11 11 12 10 11 11 11 11 14 13 15 17 19 22 24 26 34 39 42 44 45 47 48 49 50 51 51 52 52 52 51 51 50 49 48
13 11 11 9 9 7 5 6 6 6 5 3 2 2 2 3 4 3 3 4 3 5 6 6 6 5 5 3 4 5 5 5 4 3 2 4 8 11 10 6 3 2 2 1 1 3 6 8 7 9 9 8 7 7 7 9 9 9 10 11 14 16 19 22 24 25 27 30 38 42 44 45 46 47 48 48 49 49 49 49 49 48 47 47 47
12 13 13 11 10 9 7 7 7 8 7 5 4 3 3 4 5 5 4 4 5 5 5 6 6 6 6 6 5 5 5 4 3 1 1 2 6 10 10 10 9 8 7 6 3 1 2 7 5 6 6 8 7 7 8 10 11 11 11 13 16 18 20 22 24 25 27 31 33 37 41 42 43 43 44 45 45 46 46 46 45 45 44 44 44
12 14 15 13 12 10 9 9 10 9 9 7 6 3 3 4 5 6 6 4 4 6 6 5 6 6 6 6 5 4 2 2 2 1 1 2 4 8 10 10 8 7 7 5 4 3 4 6 7 4 4 4 4 6 9 12 12 13 13 15 17 19 21 22 22 23 25 27 30 32 34 36 37 39 41 42 43 44 44 44 44 43 41 40 41
14 15 15 15 13 12 12 11 12 12 11 10 7 4 4 5 6 7 7 6 5 5 6 6 5 5 5 5 4 2 2 2 2 1 1 1 3 6 10 11 10 10 8 6 5 3 3 4 5 6 2 3 4 5 7 9 10 10 11 14 17 18 18 19 21 23 22 21 22 23 24 28 34 39 40 41 42 44 43 43 42 41 40 40 40
14 15 16 16 16 15 14 13 12 14 12 10 9 6 5 6 8 8 8 8 7 7 6 6 6 5 5 4 3 2 1 0 1 1 0 1 3 6 9 11 10 9 9 8 7 6 6 5 5 3 3 1 3 4 5 7 8 9 11 12 13 17 19 20 21 22 22 22 22 22 24 26 27 28 32 36 39 40 40 40 40 41 41 41 41
14 14 16 17 19 17 16 14 13 15 14 12 10 8 6 7 9 10 10 8 9 8 7 7 6 5 5 5 4 3 1 1 1 2 2 3 5 5 8 10 11 10 10 9 8 7 7 8 8 7 5 3 1 1 3 6 8 7 10 11 12 14 16 19 20 19 20 22 24 24 23 22 24 25 26 30 35 37 38 38 40 40 40 41 42
16 15 16 18 19 18 17 16 14 13 14 12 11 9 8 8 9 10 11 10 9 9 8 7 7 5 3 3 4 3 3 4 4 2 1 1 5 6 8 10 11 10 10 9 8 7 7 8 8 6 4 2 2 3 3 6 8 8 9 9 10 11 13 15 20 22 20 19 22 23 23 22 23 26 27 27 28 30 35 39 35 35 37 38 39
18 17 16 19 19 18 18 18 16 13 13 13 11 9 11 10 9 9 11 11 10 8 8 8 7 7 5 4 2 4 5 5 7 7 6 5 1 4 8 11 11 11 11 11 10 9 8 7 6 6 4 4 4 5 6 8 8 9 8 9 8 8 9 12 17 22 21 20 20 22 24 24 25 26 27 27 27 28 28 30 33 34 32 32 34
19 18 17 17 19 19 18 18 17 14 12 13 13 13 13 12 10 9 11 12 11 10 8 7 7 6 6 6 5 2 3 4 5 5 5 4 3 0 2 6 11 14 14 12 11 12 10 9 9 9 7 7 8 9 8 8 10 10 11 11 10 10 11 10 10 17 24 23 19 21 23 26 26 27 28 28 28 27 27 29 28 25 23 25 27
21 20 17 16 18 19 19 17 17 15 13 13 17 17 16 14 12 10 10 11 12 11 9 7 7 7 6 6 6 6 7 6 8 8 4 4 3 1 1 4 5 7 9 10 10 10 10 10 10 11 11 8 8 10 10 10 10 11 11 12 12 13 12 13 14 15 20 20 18 20 23 26 28 28 27 28 29 29 27 26 23 20 18 18 22
24 21 18 17 17 18 18 18 16 16 14 14 19 20 19 17 14 11 11 11 11 11 10 8 7 7 8 7 5 6 6 6 5 8 9 6 4 3 2 3 5 5 5 5 7 8 11 11 10 11 11 11 9 9 11 11 13 12 11 12 15 16 15 15 17 17 17 19 18 20 23 25 26 27 30 30 30 29 27 24 19 16 16 16 16
24 22 20 18 18 17 17 18 18 17 14 17 20 21 21 19 16 15 12 11 11 10 10 9 8 7 8 8 7 6 8 10 11 10 10 10 9 8 9 11 11 7 5 3 3 4 7 10 11 10 10 11 9 10 13 15 14 13 14 14 15 15 17 18 17 17 19 21 20 19 21 24 27 27 29 31 31 30 29 25 21 22 21 18 15
25 24 22 20 19 18 16 17 19 17 15 21 22 22 21 20 18 16 13 12 11 11 10 9 9 9 8 8 8 7 9 10 10 12 12 11 11 12 11 12 10 9 9 9 11 12 14 14 12 9 8 10 11 11 14 16 14 13 15 16 16 16 17 19 20 21 21 24 25 25 22 21 23 25 28 29 29 30 31 27 24 25 24 22 22
24 26 24 21 19 18 18 17 16 18 17 24 23 23 22 20 20 19 15 12 11 10 11 11 11 10 9 9 8 8 8 9 9 8 9 12 12 11 12 12 12 11 10 9 9 12 13 15 14 11 11 11 13 15 17 18 19 19 18 16 15 17 17 19 21 22 22 24 24 22 22 23 25 22 22 26 29 29 28 31 30 25 20 20 21
24 24 24 21 21 19 19 19 16 18 19 24 24 24 24 22 22 20 16 15 12 11 11 13 12 11 10 9 9 8 9 9 9 10 9 12 11 11 12 12 13 12 14 16 13 12 13 15 13 12 10 11 13 15 15 16 20 23 21 18 16 18 19 18 20 23 25 24 25 25 26 26 27 24 21 23 27 30 32 32 34 29 26 26 24
21 22 23 23 22 20 20 20 19 20 20 25 24 24 25 26 24 20 19 17 14 13 13 13 13 11 9 6 7 8 8 10 10 12 13 14 12 11 11 12 13 13 15 16 15 15 15 14 15 13 12 12 13 13 15 15 15 24 23 19 18 21 19 21 20 23 26 26 29 24 27 29 27 28 25 25 26 32 33 35 33 33 31 29 25
19 22 24 24 23 22 20 20 20 21 19 25 24 26 25 27 24 22 22 19 16 15 16 14 13 11 10 8 5 6 7 9 9 13 14 15 12 12 11 12 11 12 15 18 19 17 20 23 21 20 19 15 16 18 17 13 14 22 24 22 22 24 23 22 22 22 24 30 29 26 28 28 27 30 30 28 26 28 32 33 34 35 32 34 35
Wind_Direction
34 34 50 64 65 62 67 83 75 79 72 71 74 83 85 83 86 86 83 84 85 88 73 71 79 84 89 90 81 84 71 75 81 76 78 79 79 68 52 52 53 51 50 51 52 52 53 51 51 50 50 50 49 49 49 48 47 47 43 40 38 35 35 33 32 33 32 27 25 25 22 21 20 19 21 25 23 22 23 16 6 3 351 348 341
24 58 62 71 69 63 90 93 78 90 83 75 87 83 85 82 86 88 88 89 93 90 94 83 81 83 70 78 84 79 81 75 80 78 75 75 77 70 47 48 48 47 47 46 47 48 48 48 49 49 48 49 49 49 49 49 48 47 44 43 39 40 40 38 41 42 39 38 34 33 31 29 28 26 25 26 25 19 21 13 4 360 351 346 342
45 37 56 71 72 66 71 88 94 99 90 74 75 81 83 85 78 83 87 89 88 90 86 91 95 81 79 81 85 89 90 76 73 70 63 73 72 68 58 43 45 45 45 45 43 45 45 47 46 49 49 48 48 47 48 47 48 47 47 46 46 48 47 48 47 47 46 44 42 39 40 38 37 35 35 33 27 22 18 9 8 2 351 345 342
153 160 161 147 138 130 145 97 98 74 86 87 82 86 87 88 84 82 82 88 86 90 90 85 82 93 82 83 88 88 100 94 71 66 70 66 63 65 64 58 46 45 45 46 46 44 45 44 45 45 47 47 47 48 48 49 50 51 49 52 52 52 49 48 47 45 44 43 41 41 41 43 38 39 37 35 30 25 18 12 7 0 351 343 340
150 141 154 148 134 136 61 89 82 99 104 99 107 101 98 99 92 94 88 90 104 98 87 85 89 89 89 78 87 92 74 81 77 62 60 55 61 59 60 57 55 45 45 46 45 46 46 45 46 47 46 47 48 49 49 51 51 51 52 51 51 50 49 45 42 40 40 38 38 39 41 42 41 39 37 35 32 25 18 11 2 355 349 345 342
153 170 146 130 130 131 128 115 112 100 96 108 111 104 107 98 101 95 91 97 85 92 100 91 94 98 92 97 88 86 88 89 88 84 53 52 54 54 53 56 55 55 53 47 46 46 44 45 47 47 49 50 50 50 52 51 52 52 51 51 48 48 47 45 41 40 39 38 38 40 42 43 43 42 40 36 32 22 19 8 3 360 356 355 353
156 164 137 136 124 118 120 121 94 93 111 115 106 110 110 107 102 103 102 97 95 96 96 98 112 116 114 101 85 69 74 82 84 83 84 47 58 48 49 49 52 51 52 53 50 46 43 42 44 46 47 47 48 49 49 52 52 49 49 47 46 44 43 41 39 38 39 39 41 42 45 46 45 45 42 39 34 25 19 14 10 7 1 359 360
159 163 127 125 142 133 134 113 96 102 103 101 91 90 96 103 112 112 120 92 77 83 88 105 90 93 109 97 97 85 85 89 87 75 70 61 50 50 50 48 47 48 43 48 47 47 42 39 41 43 43 44 46 47 48 49 48 47 47 46 44 43 42 41 40 39 39 40 42 44 46 47 46 46 43 39 35 28 22 18 12 7 5 5 359
128 159 138 133 126 114 101 96 110 121 99 90 98 109 114 98 117 126 127 114 106 78 92 87 89 81 77 86 109 114 96 79 70 76 79 80 64 52 48 38 33 37 43 43 39 42 37 37 35 37 40 42 44 45 47 46 45 46 44 42 40 40 39 38 38 39 40 43 45 47 47 47 47 43 40 37 33 26 21 16 13 10 7 3 4
141 140 136 114 116 116 128 121 124 124 122 122 108 115 117 140 105 113 110 116 107 103 85 83 90 92 108 101 89 84 75 75 89 75 71 71 90 73 66 54 42 37 37 43 36 34 33 34 32 35 38 41 43 43 44 44 43 42 42 41 40 39 39 38 39 41 47 50 50 49 48 46 44 39 35 33 31 28 22 18 19 20 17 18 19
151 123 122 123 116 119 118 101 124 119 122 122 125 119 121 113 121 113 88 85 108 113 131 129 101 97 23 111 104 105 87 57 68 80 64 77 63 53 46 59 59 54 43 34 35 31 27 30 32 37 41 40 41 40 41 43 41 40 41 41 41 42 43 43 45 49 51 52 51 49 47 44 40 39 33 32 33 30 28 29 31 31 31 32 29
131 128 139 120 122 113 129 125 128 117 115 104 98 106 99 97 101 112 111 106 96 109 100 107 159 170 140 97 78 60 97 92 66 65 76 57 66 84 48 35 44 48 31 51 21 21 21 24 29 36 39 35 36 37 38 39 39 39 41 43 44 45 46 48 50 52 52 52 51 49 46 44 41 38 36 34 32 32 30 31 32 34 35 32 nan
125 125 133 107 103 108 115 121 114 107 113 109 105 99 101 104 102 90 102 110 100 94 131 127 141 137 116 92 72 85 55 79 83 72 75 77 45 62 76 14 19 44 37 30 37 18 12 20 32 36 34 28 32 34 36 37 38 41 43 46 47 48 50 51 53 54 53 51 49 45 42 40 40 38 38 36 35 33 33 32 30 32 31 29 30
131 124 119 101 110 124 105 106 103 95 94 95 99 103 101 106 109 114 97 100 103 99 107 103 97 88 81 83 95 82 94 79 70 77 76 81 57 82 120 94 15 22 35 26 33 38 25 23 37 40 19 26 26 28 34 38 41 42 44 45 47 49 50 52 55 54 53 50 49 45 42 39 40 39 39 39 38 37 34 32 31 30 30 28 28
132 123 123 121 132 139 124 126 94 85 81 93 95 96 102 104 93 102 111 98 101 112 108 101 93 93 113 100 86 79 89 100 96 87 67 67 73 59 45 54 65 44 52 33 25 34 48 29 43 38 29 27 28 29 30 35 37 39 39 43 47 49 50 51 51 50 47 44 42 39 37 37 38 39 38 37 37 36 35 34 33 31 28 28 26
131 132 135 129 125 117 121 105 102 99 116 114 104 102 102 100 100 100 98 110 108 104 82 92 108 88 83 91 76 77 68 93 74 69 69 70 45 64 40 63 49 28 60 67 44 42 49 47 35 41 47 48 48 27 31 34 35 35 36 41 45 47 49 48 47 46 42 41 39 36 34 33 33 35 37 38 37 36 35 34 31 29 27 27 26
134 131 134 132 127 129 122 111 113 100 96 94 105 106 98 96 106 105 103 110 112 110 98 82 94 111 99 101 97 93 107 75 69 103 84 69 75 57 35 92 63 49 57 67 78 44 49 39 37 38 42 44 47 51 47 31 31 35 38 41 42 43 44 46 46 43 41 39 38 36 33 31 32 34 35 36 36 36 35 33 30 29 27 25 25
139 132 131 134 125 124 116 111 107 106 113 110 121 108 98 95 94 105 125 114 111 116 109 104 83 101 103 85 96 91 78 100 103 87 97 102 84 59 27 53 57 38 59 56 54 57 58 34 43 41 39 42 40 39 49 37 34 37 36 39 40 37 39 41 42 41 39 37 36 36 35 32 33 34 35 35 35 35 32 29 27 26 25 24 24
133 133 137 134 130 119 117 116 112 115 114 116 108 103 111 109 105 102 103 116 116 118 113 105 115 75 66 68 47 83 81 79 76 73 91 89 89 99 51 48 54 31 46 62 41 50 46 50 35 42 37 40 41 47 47 50 42 33 32 34 34 34 37 39 40 40 38 37 37 38 37 35 32 32 33 33 33 32 30 27 25 24 24 23 23
141 144 138 137 133 123 120 121 125 117 106 106 110 116 137 131 119 150 142 103 93 87 88 102 66 77 71 83 78 65 nan nan 82 85 73 82 90 80 79 49 66 53 46 47 48 39 37 49 47 46 31 45 45 43 47 47 43 32 33 27 29 32 35 37 37 37 39 39 39 37 38 36 33 30 29 31 31 29 28 25 23 22 22 21 21
141 145 137 132 132 128 124 125 123 126 128 111 103 79 22 83 107 69 84 82 76 70 65 79 92 58 86 103 120 86 47 52 31 67 75 90 86 81 86 84 88 63 84 89 80 44 33 38 49 52 47 39 46 46 48 48 41 34 33 28 29 31 34 35 36 38 38 39 39 38 37 36 35 32 31 29 28 26 25 23 21 20 19 19 19
138 139 136 127 127 124 122 114 116 112 117 115 105 104 83 79 79 75 77 75 79 83 68 69 78 107 47 29 65 92 111 104 83 59 65 77 81 89 79 67 64 75 65 58 61 67 64 42 49 55 54 42 40 44 44 45 46 37 35 29 30 33 35 35 35 36 37 37 37 37 36 35 34 32 30 28 25 24 22 21 20 18 17 17 17
135 134 133 121 122 122 112 109 113 112 118 125 122 114 93 80 72 68 74 70 53 67 77 58 60 63 62 9 40 47 41 69 73 95 87 76 80 90 82 97 86 75 66 67 68 68 60 53 49 58 50 49 48 42 43 44 45 45 35 29 32 34 35 35 34 34 34 34 34 33 33 32 31 29 28 26 23 22 20 20 19 17 16 15 16
144 137 123 107 122 125 121 122 119 123 117 117 119 112 106 72 71 49 56 56 55 56 69 73 65 26 62 33 39 59 33 45 57 42 57 79 90 91 92 81 75 76 65 57 54 56 60 52 51 55 53 49 46 44 39 42 43 37 32 31 33 34 35 35 33 31 32 30 29 30 29 28 27 26 24 22 22 21 19 17 16 15 13 11 14
141 129 121 116 136 131 129 129 142 132 138 128 123 128 140 137 67 32 36 42 40 46 38 54 53 43 61 82 62 64 57 36 77 74 41 51 52 73 85 93 91 82 72 76 69 72 65 63 54 49 48 46 48 42 43 46 49 37 34 36 33 33 33 33 32 31 30 29 28 27 26 25 23 20 17 18 21 20 19 20 18 18 16 12 14
138 135 132 116 136 156 149 139 153 166 156 156 148 131 141 150 136 100 61 28 46 46 52 59 61 62 49 50 82 84 74 49 38 44 59 51 53 65 76 92 92 93 88 67 62 67 68 64 67 62 56 53 51 44 47 51 57 39 38 39 35 32 31 30 29 28 28 27 26 25 24 23 21 20 17 19 22 21 19 20 22 23 20 16 16
142 157 153 169 163 221 268 162 156 173 181 174 152 162 160 141 139 134 110 104 37 51 51 59 62 58 55 48 63 79 89 99 86 62 83 100 106 124 116 105 99 97 88 84 74 58 69 79 69 52 47 49 54 55 54 58 58 42 41 41 33 31 30 29 28 27 25 25 24 23 23 23 23 21 19 18 21 21 21 21 21 20 19 17 15
166 175 182 198 239 247 281 299 197 186 208 188 171 165 175 127 107 113 100 80 73 60 68 77 74 72 71 66 56 86 95 84 92 76 46 92 138 112 96 79 81 89 94 93 91 88 89 73 65 61 48 55 56 61 65 61 63 41 38 39 34 26 28 28 28 26 25 24 24 23 23 23 23 22 20 18 19 21 22 21 20 19 18 17 16
201 193 205 228 246 280 284 319 305 202 200 202 162 150 150 113 95 97 95 89 84 82 82 77 85 82 67 55 44 54 73 93 114 112 345 320 114 135 108 82 82 82 85 87 92 97 99 114 104 74 62 64 70 67 64 60 56 42 37 34 31 29 22 24 25 25 23 22 23 23 23 23 23 22 22 21 22 23 23 22 21 20 19 18 18
197 205 224 252 249 290 276 291 298 154 133 120 117 113 117 111 104 96 92 93 95 88 80 84 80 78 87 79 47 45 43 46 34 35 24 329 329 50 87 90 71 68 80 90 94 94 98 104 102 102 98 80 73 68 63 57 46 37 35 31 30 28 30 21 23 24 23 23 22 22 23 24 24 24 24 24 25 25 25 24 23 21 21 20 19
200 204 237 254 260 270 270 293 170 115 121 119 117 116 115 113 106 100 94 89 93 90 79 71 77 77 75 75 86 71 67 68 88 124 300 318 329 329 105 120 125 87 77 93 104 90 96 105 110 117 105 88 73 60 52 49 45 36 34 32 30 32 35 26 24 26 25 25 25 24 25 26 27 27 26 25 25 26 27 26 25 24 23 21 20
214 212 227 250 264 278 285 107 104 119 122 121 120 123 117 112 107 97 82 61 62 69 72 59 59 54 48 60 63 66 70 71 69 84 171 215 272 319 15 75 110 122 113 95 82 97 103 107 112 113 109 96 73 72 71 62 47 36 37 34 34 35 31 29 27 25 26 26 26 24 24 24 25 26 25 24 24 24 24 25 24 23 22 21 20
228 229 228 242 257 256 196 145 121 147 147 131 136 144 114 98 97 102 115 41 23 35 45 65 64 46 28 29 40 43 51 69 47 52 159 193 244 275 269 162 125 135 105 77 80 95 102 94 101 103 106 101 94 82 83 77 72 56 40 37 34 31 29 26 26 27 25 26 25 24 22 22 22 23 23 23 22 22 23 23 22 22 21 19 19
237 243 241 243 252 255 196 182 163 177 181 175 139 191 317 17 32 54 66 93 359 11 24 39 43 65 47 13 23 31 33 48 68 66 108 170 186 216 273 149 184 136 109 96 86 92 103 114 109 109 106 98 92 73 69 71 69 54 48 36 28 24 23 22 23 24 28 24 24 24 23 22 20 20 21 21 20 21 21 21 21 20 19 17 16
249 246 251 252 252 250 220 205 197 197 214 212 217 241 289 339 345 1 14 22 25 357 11 30 32 24 43 36 24 19 31 46 44 57 133 171 183 189 197 208 202 182 155 100 91 90 108 116 120 120 113 112 103 105 98 90 76 62 50 37 35 30 23 21 19 21 29 28 20 21 21 21 22 21 20 19 20 20 20 20 19 19 17 15 14
257 253 256 263 256 255 242 223 221 213 225 230 234 257 298 324 327 336 348 348 354 1 2 14 22 19 24 24 34 28 20 37 50 94 243 209 191 195 191 179 186 187 190 199 227 198 167 135 139 115 113 111 106 87 81 72 67 57 45 37 34 35 33 26 20 16 18 25 28 20 17 19 21 21 19 18 19 19 19 20 19 18 16 14 12
258 258 255 260 257 255 252 238 233 231 230 238 245 270 290 308 321 324 329 333 340 343 351 1 10 6 17 24 22 23 34 37 35 44 210 198 211 200 194 194 194 196 197 197 188 203 174 143 145 128 110 125 120 89 69 66 54 42 29 23 22 21 20 21 17 14 19 30 28 27 24 21 22 20 19 18 17 18 19 19 19 18 16 14 13
252 259 260 258 257 255 251 247 239 242 235 236 244 261 301 312 311 315 313 325 339 338 338 345 357 3 13 13 17 17 15 30 57 60 216 248 224 200 195 196 200 203 206 208 221 229 195 158 152 144 144 119 104 59 47 42 50 47 33 24 19 17 18 21 14 10 9 9 10 10 10 10 13 17 18 17 17 17 17 19 20 17 14 11 11
259 259 264 262 257 257 257 254 246 245 243 239 239 251 274 297 306 309 319 320 330 333 332 340 355 355 5 9 357 355 42 43 7 20 206 218 217 198 199 202 207 209 201 200 212 211 205 185 177 175 160 123 60 65 18 15 21 27 41 36 23 9 9 10 10 6 5 7 12 16 14 19 24 19 16 15 15 15 16 18 19 17 12 8 7
262 258 265 267 261 262 265 264 254 249 250 242 240 252 268 289 297 307 313 315 328 331 328 332 345 356 344 355 7 341 351 195 230 223 210 204 224 215 206 204 207 210 206 212 221 219 210 205 200 203 227 207 202 5 20 20 23 17 12 16 21 3 360 353 356 1 357 360 1 359 3 12 10 10 15 13 9 10 13 14 16 15 11 6 4
254 256 258 269 270 272 273 272 268 261 258 249 241 251 268 285 291 305 312 318 323 322 324 331 331 332 325 321 324 342 296 349 4 352 63 208 216 217 214 212 214 216 218 226 228 229 218 210 203 219 230 250 329 350 358 351 354 350 337 353 6 359 350 352 347 344 351 359 359 354 350 355 7 6 5 5 3 3 3 5 6 9 6 3 2
254 253 251 261 275 277 276 278 277 272 261 251 249 282 281 276 291 303 303 309 316 316 314 319 324 324 328 335 329 4 7 359 351 1 17 26 346 225 216 222 221 222 225 225 230 229 223 213 215 230 245 267 290 304 297 300 309 320 329 326 337 344 351 3 353 338 334 344 352 354 352 354 6 8 4 5 3 359 355 354 353 358 3 5 0
261 256 254 260 274 277 279 281 287 283 275 260 273 273 283 297 293 299 300 298 305 310 314 308 312 314 308 315 298 264 233 244 272 343 6 15 2 3 205 214 224 227 226 231 231 229 222 220 227 239 247 251 259 262 268 274 294 305 312 316 332 335 341 348 355 338 331 329 349 359 356 352 360 6 3 1 1 358 358 356 7 12 5 360 3
263 260 261 260 263 273 276 282 286 285 277 274 280 277 282 293 297 297 299 292 294 304 310 316 310 309 312 308 298 287 265 247 239 262 303 352 344 323 183 193 199 207 233 242 232 226 228 223 228 237 240 243 247 261 266 272 287 301 310 318 327 332 334 337 344 345 335 333 350 0 357 349 354 359 0 0 0 357 358 359 0 356 0 358 355
263 263 261 261 261 264 273 280 278 277 274 280 280 283 284 291 306 302 292 288 289 295 305 315 312 309 306 306 291 270 261 289 265 251 261 268 294 329 282 217 200 207 210 226 248 246 236 233 231 234 250 248 251 266 277 283 286 298 310 321 322 320 325 338 344 344 343 337 347 357 355 348 350 357 356 356 354 350 348 344 340 352 360 5 4
261 266 268 264 261 261 263 271 273 269 269 273 284 285 286 293 303 305 292 290 288 292 296 302 307 307 304 303 302 285 262 246 241 246 251 259 260 253 243 233 229 219 224 238 243 254 255 245 239 240 249 266 273 272 277 281 289 302 306 313 315 323 329 335 334 341 342 338 347 354 352 346 348 352 353 351 347 345 345 348 349 356 8 6 360
259 263 267 266 264 264 264 262 265 271 266 276 283 287 288 292 301 300 297 293 279 278 282 284 288 299 301 305 301 291 271 259 245 241 245 252 254 254 252 243 241 238 243 252 260 262 263 259 258 253 255 268 271 275 276 281 293 301 309 315 315 318 324 325 330 336 339 341 344 338 344 341 346 354 349 343 342 345 344 345 358 0 346 346 347
259 258 261 263 267 269 267 264 261 265 263 277 285 288 292 291 297 273 285 292 284 269 264 265 274 284 293 295 292 293 277 261 261 265 253 251 252 250 248 246 248 252 257 269 289 282 276 275 274 272 271 277 282 282 282 282 279 282 287 298 307 313 316 324 326 323 329 326 324 330 342 343 339 348 350 343 338 341 344 348 348 333 330 335 340
263 267 267 270 265 269 270 266 264 257 258 268 282 288 290 295 274 270 288 286 282 277 265 261 258 261 272 280 282 283 280 268 270 278 275 269 251 251 246 242 239 235 239 243 272 301 305 296 301 307 303 301 291 278 273 276 286 284 289 298 309 309 312 316 321 322 323 324 324 322 333 338 332 334 348 349 342 343 344 343 341 336 340 342 336
272 271 269 267 266 268 272 273 272 261 258 266 283 283 289 289 286 278 281 284 280 271 265 265 261 259 262 284 283 277 274 267 283 291 287 276 261 259 253 245 238 236 240 244 240 258 298 311 311 308 292 274 268 267 276 283 295 295 298 308 308 302 310 316 322 322 323 325 318 329 327 332 329 332 339 348 350 342 340 341 338 341 339 337 344
269 266 265 267 267 266 273 276 281 274 266 267 284 283 283 283 281 267 272 276 275 267 266 267 272 270 270 282 318 306 286 285 293 292 295 286 270 266 262 255 248 244 247 246 249 246 251 261 263 261 262 275 280 281 286 303 309 304 306 313 307 307 312 314 317 322 322 321 317 319 319 327 326 331 332 337 344 348 342 339 338 333 336 341 340